Regional Weather Roundup
Issued by NWS San Diego, CA

Home | Current Version | Previous Version | Text Only | Print | Product List | Glossary On
Versions: 1 2 3 4 5 6 7 8 9 10 11 12 13 14 15 16 17 18 19 20 21 22 23 24 25 26 27 28 29 30 31 32 33 34 35 36 37 38 39 40 41 42 43 44 45 46 47 48 49 50
000
ASUS46 KSGX 260110
RWRSGX

SAN DIEGO HOURLY WEATHER ROUNDUP
NATIONAL WEATHER SERVICE SAN DIEGO CA
600 PM PDT FRI JUL 25 2014

NOTE: "FAIR" INDICATES FEW OR NO CLOUDS BELOW 12,000 FEET WITH NO
SIGNIFICANT WEATHER AND/OR OBSTRUCTIONS TO VISIBILITY.

CAZ042-043-060-061-PZZ750-775-260200-

GREATER SAN DIEGO AREA

CITY           SKY/WX    TMP DP  RH WIND       PRES   REMARKS
LINDBERGH FLD  PTSUNNY   74  64  71 SW5       29.89F
POINT LOMA       N/A     75  64  69 W12         N/A
NATIONAL CITY    N/A     76  67  74 NW2       29.89F
CHULA VISTA      N/A     79  68  70 W3        29.82F
IMPERIAL BEACH PTSUNNY   73  65  75 W9        29.89F
BROWN FIELD    MOSUNNY   76  64  66 VRB5      29.89F
MIRAMAR MCAS   PTSUNNY   77  63  61 SW6       29.89F
MONTGOMERY FLD MOSUNNY   75  65  70 SW6       29.89F

$$

NORTH SAN DIEGO COUNTY

CITY           SKY/WX    TMP DP  RH WIND       PRES   REMARKS
CAMP PENDLETON MOSUNNY   76  64  66 SW7       29.87F HAZE
OCEANSIDE AP   MOSUNNY   74  64  71 SW8       29.87S
VISTA            N/A     76  68  74 CALM      29.85F
CARLSBAD       MOSUNNY   72  64  76 SW6       29.88F
DEL MAR          N/A     71  67  87 SW3       29.90F
LA JOLLA SCRIP   N/A     70  68  93 W3        29.85
FALLBROOK        N/A     83  66  57 S3        29.87S
ESCONDIDO        N/A     80  67  63 SW3       29.88F
SAN MARCOS       N/A     75  67  76 NW1       29.85F
POWAY            N/A     85  65  51 W7        29.87F
R. PENASQUITOS   N/A     79  66  64 CALM      29.87F

$$

EAST SAN DIEGO COUNTY

CITY           SKY/WX    TMP DP  RH WIND       PRES   REMARKS
RAMONA         MOSUNNY   83  62  49 W5        29.91F
GILLESPIE FLD  FAIR      82  61  47 SW5       29.89F
JAMUL            N/A     82  66  57 CALM      29.85F
DESCANSO N       N/A     82  58  43 W3        29.70F
MT. LAGUNA OBS   N/A     77  40  25 W6        29.75F
CAMPO            N/A     82  57  42 SW9       29.93F

$$

ORANGE COUNTY AND THE LOS ANGELES BASIN

CITY           SKY/WX    TMP DP  RH WIND       PRES   REMARKS
JOHN WAYNE AP  PTSUNNY   77  65  66 SW9       29.86F
LAGUNA BEACH     N/A     74  68  80 S2        29.83F
LAKE FOREST FR   N/A     84  57  39 S3        29.76S
SANTA ANA        N/A     81  68  65 SW3       29.81F
HUNTINGTON BCH   N/A     75  67  76 SW3       29.88F
LOS ALAMITOS   PTSUNNY   78  66  66 S9        29.87S
FULLERTON      MOSUNNY   84  63  49 SW7       29.85F
LONG BEACH     MOSUNNY   76  64  66 S6        29.86F
L.A. AP        PTSUNNY   72  64  76 W10       29.87F
L.A. DOWNTOWN  MOSUNNY   80  64  58 W3        29.85F

$$

THE INLAND EMPIRE

CITY           SKY/WX    TMP DP  RH WIND       PRES   REMARKS
CORONA         MOSUNNY   88  64  44 W14       29.84F
CHINO          PTSUNNY   85  64  49 W14       29.86S
ONTARIO        PTSUNNY   90  61  37 SW15      29.86S
SAN BERNARDINO PTSUNNY   95  54  24 W13       29.85F
RIVERSIDE AP   SUNNY     90  62  39 W10G18    29.85S
RIV CYN CREST    N/A     90  70  51 W7        29.84S HX  95
MORENO VALLEY    N/A     95  63  34 W6          N/A  HX  96
MARCH ARB      SUNNY     93  63  36 W12       29.89S
HORSETHIEF CYN   N/A     92  56  29 NW7       29.84S
PERRIS           N/A     91  53  28 S7          N/A
MENIFEE          N/A     91  60  35 S5        29.93F
HEMET EAST       N/A     92  47  20 CALM      29.82S
FRENCH VALLEY  FAIR      84  57  39 SW9       29.90F
TEMECULA         N/A     88  57  34 SW7       29.82F

$$

SAN BERNARDINO AND RIVERSIDE COUNTY MOUNTAINS

CITY           SKY/WX    TMP DP  RH WIND       PRES   REMARKS
BIG BEAR AP    MOSUNNY   75  41  29 SW8       30.26S
BIG BEAR SHEA    N/A     77  37  23 W5        29.76F
ANGELUS OAKS     N/A     83  48  29 CALM      29.68F
PINE COVE        N/A     75  49  39 SW3       29.79S

$$

SOUTHERN DESERT INCLUDING THE COACHELLA VALLEY

CITY           SKY/WX    TMP DP  RH WIND       PRES   REMARKS
PALM SPRINGS   MOSUNNY   97  68  38 CALM      29.75F HX 102
THOUSAND PALMS   N/A     94  71  45 W1        29.69F HX 101
THERMAL        MOSUNNY  102  62  26 W8        29.68F HX 104
BLYTHE         SUNNY    109  60  20 SW18      29.70F HX 110
IMPERIAL AP    MOSUNNY  106  65  26 E9        29.68S HX 110
EL CENTRO NAS  MOSUNNY  107  66  26 N9        29.68S HX 112
YUMA AZ        PTSUNNY  108  56  18 S13       29.72S HX 107
MEXICALI       MOSUNNY  102  61  25 SE13      29.71  HX 103

$$

UPPER DESERT

CITY           SKY/WX    TMP DP  RH WIND       PRES   REMARKS
VICTORVILLE AP PTSUNNY   95  36  12 S22G28    29.91F
HESPERIA         N/A     92  51  24 W8        29.84F
APPLE VALLEY     N/A     91  47  22 S8G28     29.98F
GRAY BUTTE AP  NOT AVBL
PALMDALE       MOSUNNY   94  36  13 SW21G32   29.89F
LANCASTER      MOSUNNY   92  32  12 SW21G33   29.89S
EDWARDS AFB    PTSUNNY   96  19   6 SW25G33   29.86S
DAGGETT        CLOUDY   103  38  10 SW21      29.81S HX  97
29 PALMS N     PTSUNNY   96  52  22 SW16      29.90F
NEEDLES        MOSUNNY  108  59  20 W18       29.74R THUNDER HX 109

$$

REGIONAL REPORTS

CITY           SKY/WX    TMP DP  RH WIND       PRES   REMARKS
SANTA BARBARA  SUNNY     70  60  70 W10       29.87F
SANDBERG       MOSUNNY   82  46  28 S17G28    30.08S
MT. WILSON       N/A     84  34  16 MISG        N/A
LAS VEGAS NV   PTSUNNY  103  47  15 S12       29.78F HX  99
PHOENIX AZ     CLOUDY    92  61  35 S28G39    29.80R BLWGDUST
TIJUANA        MOSUNNY   77  61  57 NW10      29.91F
ENSENADA NW      N/A     74  32  21 SW2       29.86F

$$

OFFSHORE ISLANDS

CITY           SKY/WX    TMP DP  RH WIND       PRES   REMARKS
CATALINA ARPT  PTSUNNY   79  57  46 CALM      29.92F
SAN NICOLAS IS MOSUNNY  N/A N/A N/A NW10      29.89S

$$

MARINE AND OFFSHORE BUOY REPORTS

STATION/POSITION SKY/WX   TEMP    WIND        PRES    SWELL
                          AIR SEA DIR/SP/G            HT/PER/DIR
                          (F)     (DEG/KT/KT) (MB)    (FT/S/D)
TANNER BANKS               64 67  310/ 10/ 12 1012.4F   5/310/ 9
S CLEMENTE BASIN           67 71  270/  6/  8 1011.9F   3/290/ 9
SAN NICOLAS IS.               67                N/A     2/320/11
SO. S. ROSA ISLA           64 66  300/ 12/ 14 1011.6F   7/ 9
W. S. BARBARA CH           62 63  300/ 10/ 14 1011.6F   7/320/ 9
M. S. BARBARA CH           61 66  280/ 10/ 14 1012.3
S. MONICA BASIN            69 70  280/  2/  4 1011.1F   2/190/15
S PEDRO CHANNEL               72                N/A     2/190/18
DANA POINT                    72                N/A     2/200/18
CMP PENDLETON NS              72                N/A     2/220/18
OCEANSIDE OFFSHR              72                N/A     2/200/18
TORREY PINES OTR              72                N/A     2/190/14
LA JOLLA 1                 70 71  250/  8/  9 1012.0F
MISSION BAY BUOY              71                N/A     2/210/18
SAN DIEGO BAY                 73              1012.4F
POINT LOMA SOUTH              71                N/A     2/190/18

$$



USA.gov is the U.S. government's official web portal to all federal, state and local government web resources and services.